User: anonymous   Login
Location: Prairie State College
(41.5244°N, 87.6382°W)
Time: 18:40:17
(UTC-05:00)
Language:

Cosmos 1943 - Orbit

View from above orbital plane
View from above orbital plane
View from above satellite
View from above satellite

Ground track
Ground track

The orbit data is extracted from the following two-line orbital elements,

1 19119U 88039A   17112.90539828 -.00000041 +00000-0 +33037-5 0  9992
2 19119 071.0045 217.8727 0010267 151.8914 352.2831 14.15091768494002
Epoch (UTC): 22 April 2017 21:43:46
Eccentricity: 0.0010267
inclination: 71.0045°
perigee height: 834 km
apogee height: 849 km
right ascension of ascending node: 217.8727°
argument of perigee: 151.8914°
revolutions per day: 14.15091768
mean anomaly at epoch: 352.2831°
orbit number at epoch: 49400

The dashed part of the orbit path shows where the satellite is in the earth's shadow,  

DLR